Regional Weather Roundup
Issued by NWS

Home | Current Version | Previous Version | Graphics & Text | Print | Product List | Glossary On
Versions: 1 2 3 4 5 6 7 8 9 10 11 12 13 14 15 16 17 18 19 20 21 22 23 24 25 26 27 28 29 30 31 32 33 34 35 36 37 38 39 40 41 42 43 44 45 46 47 48 49 50
696
ASUS43 KFSD 130602
RWRSD

WEATHER ROUNDUP FOR SOUTH DAKOTA
NATIONAL WEATHER SERVICE SIOUX FALLS SD
1200 AM CST WED DEC 13 2017

NOTE: "FAIR" INDICATES FEW OR NO CLOUDS BELOW 12,000 FEET WITH NO
SIGNIFICANT WEATHER AND/OR OBSTRUCTIONS TO VISIBILITY.


SDZ001>005-009-010-012>017-130700-
NORTHWEST AND NORTH CENTRAL SOUTH DAKOTA

CITY           SKY/WX    TMP DP  RH WIND       PRES   REMARKS
BUFFALO          N/A     50  21  32 NW37G49   29.80S
FAITH            N/A     50  21  32 NW37G52   29.76R
MOBRIDGE       CLOUDY    51  24  34 NW33G47   29.57S
$$

SDZ012>016-024>037-041>051-057-063-072>074-130700-
SOUTHWEST AND SOUTH CENTRAL SOUTH DAKOTA

CITY           SKY/WX    TMP DP  RH WIND       PRES   REMARKS
RAPID CTY ARPT CLOUDY    53  12  19 NW35G43   29.89R
PIERRE         PTCLDY    53  21  28 NW25G36   29.67S
CUSTER         CLOUDY    44   8  23 N16G31    29.93F
ELLSWORTH AFB  LGT RAIN  52  13  21 NW32G40   29.89
PHILIP         CLOUDY    54  17  23 NW31G41   29.79R
PINE RIDGE     CLOUDY    41  23  48 W6        29.91S
SPEARFISH      FAIR      48  16  27 NW31G39   29.95R
WINNER         FAIR      54  18  24 W18G28    29.71F
$$

SDZ004>011-016>023-039-040-130700-
NORTHEAST SOUTH DAKOTA

CITY           SKY/WX    TMP DP  RH WIND       PRES   REMARKS
ABERDEEN       CLOUDY    45  24  43 W13       29.51F
WATERTOWN      CLOUDY    36  26  67 SW16      29.49F
BROOKINGS      CLOUDY    38  25  59 MISG        N/A
SISSETON         N/A     43  27  53 W18       29.42F
$$

SDZ017-020-022-023-036>040-048>070-130700-
SOUTHEAST SOUTH DAKOTA

CITY           SKY/WX    TMP DP  RH WIND       PRES   REMARKS
SIOUX FALLS    CLOUDY    39  25  57 SW8       29.58F
HURON          CLOUDY    45  24  43 W13       29.57F
CHAMBERLAIN    CLEAR     47  21  35 W17G23    29.67F
MITCHELL       PTCLDY    47  23  38 W14       29.61F
YANKTON        CLOUDY    47  22  37 SW15      29.63F
$$

ABBREVIATIONS USED IN REMARKS
   TC - TEMPERATURE IN CELSIUS
  WCI - WIND CHILL INDEX
   HX - HEAT INDEX
  VSB - VISIBILITY





USA.gov is the U.S. government's official web portal to all federal, state and local government web resources and services.